Provo, UT

8:57 AM MST on December 16, 2017 (GMT -0700)
Provo Municipal

Weather History for KPVU - January, 2013

Change the Weather History Date:

Saturday, January 12, 2013

  Actual Average Record
Temperature  
Mean Temperature 12 °F -  
Max Temperature 17 °F 34 °F 55 °F (1990)
Min Temperature 8 °F 21 °F 3 °F (1993)
Degree Days  
Heating Degree Days 52    
Moisture  
Dew Point 10 °F    
Average Humidity 86    
Maximum Humidity 100    
Minimum Humidity 62    
Precipitation  
Precipitation 0.00 in - - ()
Sea Level Pressure  
Sea Level Pressure 30.00 in    
Wind  
Wind Speed 3 mph (NW)    
Max Wind Speed 17 mph    
Max Gust Speed -    
Visibility 8 miles    
Events Snow    
Averages and records for this station are not official NWS values.
T = Trace of Precipitation, MM = Missing Value Source: NWS Daily Summary

Daily Weather History Graph

Daily Weather History Graph

Search for Another Location

Airport or City:

Trip Planner

Search our weather history database for the weather conditions in past years. The results will help you decide how hot, cold, wet, or windy it might be!

Date:

Astronomy

Jan. 12, 2013 Rise Set
Actual Time 7:48 AM MST 5:22 PM MST
Civil Twilight 7:18 AM MST 5:52 PM MST
Nautical Twilight 6:44 AM MST 6:26 PM MST
Astronomical Twilight 6:12 AM MST 6:58 PM MST
Moon 8:09 AM MST (1/12) 6:56 PM MST (1/12)
Length of Visible Light 10h 34m
Length of Day
9h 34m
New Moon, 1% of the Moon is Illuminated
Jan 12
New Moon
Jan 18
First Quarter
Jan 26
Full
Feb 3
Last Quarter
Feb 10
New

Hourly Weather History & Observations

Time (MST) Temp. Windchill Dew Point Humidity Pressure Visibility Wind Dir Wind Speed Gust Speed Precip Events Conditions
12:15 AM 15.8 °F - 12.2 °F 86% 29.96 in 10.0 mi Calm Calm - N/A   Clear
12:35 AM 15.8 °F - 14.0 °F 93% 29.96 in 10.0 mi Calm Calm - N/A   Clear
12:55 AM 15.8 °F - 15.8 °F 100% 29.96 in 10.0 mi Calm Calm - N/A   Clear
1:15 AM 15.8 °F - 10.4 °F 79% 29.96 in 10.0 mi Calm Calm - N/A   Clear
1:35 AM 12.2 °F 6.1 °F 10.4 °F 92% 29.96 in 10.0 mi ESE 3.5 mph - N/A   Partly Cloudy
1:55 AM 12.2 °F 6.1 °F 12.2 °F 100% 29.96 in 10.0 mi SE 3.5 mph - N/A   Partly Cloudy
2:15 AM 12.2 °F - 10.4 °F 92% 29.97 in 10.0 mi Calm Calm - N/A   Clear
2:35 AM 14.0 °F 8.2 °F 12.2 °F 93% 29.97 in 10.0 mi SSE 3.5 mph - N/A   Clear
2:55 AM 12.2 °F 6.1 °F 12.2 °F 100% 29.97 in 10.0 mi East 3.5 mph - N/A   Clear
3:35 AM 10.4 °F - 8.6 °F 92% 29.96 in 10.0 mi Calm Calm - N/A   Mostly Cloudy
3:55 AM 14.0 °F - 14.0 °F 100% 29.96 in 10.0 mi Calm Calm - N/A   Mostly Cloudy
4:15 AM 14.0 °F - 14.0 °F 100% 29.95 in 10.0 mi Calm Calm - N/A   Mostly Cloudy
4:35 AM 15.8 °F - 14.0 °F 93% 29.95 in 10.0 mi Calm Calm - N/A   Scattered Clouds
4:55 AM 15.8 °F - 12.2 °F 86% 29.95 in 6.0 mi Calm Calm - N/A   Clear
5:15 AM 14.0 °F - 12.2 °F 93% 29.95 in 5.0 mi Calm Calm - N/A   Clear
5:35 AM 14.0 °F - 12.2 °F 93% 29.95 in 10.0 mi Calm Calm - N/A   Clear
5:55 AM 15.8 °F 10.2 °F 12.2 °F 86% 29.96 in 5.0 mi WSW 3.5 mph - N/A   Mostly Cloudy
6:15 AM 15.8 °F 7.2 °F 12.2 °F 86% 29.96 in 3.0 mi WSW 5.8 mph - N/A   Overcast
6:35 AM 15.8 °F 8.6 °F 12.2 °F 86% 29.96 in 3.0 mi SW 4.6 mph - N/A   Mostly Cloudy
6:55 AM 15.8 °F 8.6 °F 12.2 °F 86% 29.97 in 3.0 mi SW 4.6 mph - N/A   Overcast
6:58 AM 15.8 °F 8.6 °F 12.2 °F 86% 29.97 in 4.0 mi SSW 4.6 mph - N/A Snow Light Snow
7:50 AM 15.8 °F 7.2 °F 14.0 °F 93% 29.98 in 1.2 mi South 5.8 mph - N/A   Overcast
8:47 AM 15.8 °F 10.2 °F 14.0 °F 93% 30.01 in 1.2 mi Variable 3.5 mph - N/A   Overcast
9:50 AM 15.8 °F - 14.0 °F 93% 30.03 in 2.5 mi Calm Calm - N/A   Overcast
11:53 AM 17.6 °F 12.3 °F 12.2 °F 79% 30.03 in 5.0 mi Variable 3.5 mph - N/A   Overcast
12:57 PM 17.6 °F 5.0 °F 12.2 °F 79% 30.01 in 6.0 mi WNW 11.5 mph - N/A   Overcast
1:50 PM 17.6 °F 2.2 °F 10.4 °F 73% 30.01 in 7.0 mi WNW 17.3 mph - N/A   Mostly Cloudy
2:50 PM 15.8 °F -0.2 °F 10.4 °F 79% 30.02 in 10.0 mi WNW 17.3 mph - N/A   Mostly Cloudy
3:47 PM 15.8 °F 0.3 °F 10.4 °F 79% 30.03 in 10.0 mi WNW 16.1 mph - N/A   Mostly Cloudy
6:56 PM 12.2 °F 0.7 °F 1.4 °F 62% 30.06 in 15.0 mi WNW 8.1 mph - N/A   Mostly Cloudy
7:52 PM 12.2 °F 4.3 °F 3.2 °F 67% 30.06 in 15.0 mi WNW 4.6 mph - N/A   Mostly Cloudy
8:47 PM 10.4 °F 2.2 °F 6.8 °F 85% 30.07 in 15.0 mi North 4.6 mph - N/A   Mostly Cloudy
9:15 PM 8.6 °F 0.1 °F 3.2 °F 79% 30.07 in 10.0 mi NNE 4.6 mph - N/A   Partly Cloudy
9:35 PM 8.6 °F 2.0 °F 1.4 °F 73% 30.07 in 10.0 mi NNE 3.5 mph - N/A   Mostly Cloudy
9:55 PM 8.6 °F 0.1 °F 5.0 °F 85% 30.07 in 10.0 mi North 4.6 mph - N/A   Overcast
10:15 PM 8.6 °F 0.1 °F 3.2 °F 79% 30.07 in 10.0 mi NE 4.6 mph - N/A   Overcast
10:35 PM 8.6 °F 2.0 °F 5.0 °F 85% 30.07 in 10.0 mi North 3.5 mph - N/A   Overcast
10:55 PM 8.6 °F 2.0 °F 3.2 °F 79% 30.07 in 10.0 mi NNE 3.5 mph - N/A   Mostly Cloudy
11:15 PM 8.6 °F - 5.0 °F 85% 30.07 in 10.0 mi Calm Calm - N/A   Mostly Cloudy
11:35 PM 10.4 °F 4.0 °F 3.2 °F 73% 30.08 in 10.0 mi North 3.5 mph - N/A   Mostly Cloudy
11:55 PM 10.4 °F 4.0 °F 5.0 °F 79% 30.09 in 10.0 mi North 3.5 mph - N/A   Mostly Cloudy